WBGR

Miri Airport

Airport
ICAO code
WBGR
IATA Code
MYY
Summary
ICAO Region
APAC
ICAO Territory
Location

Riam, Sarawak

Serving
Miri
Elevation
59 ft
Coordinates
4° 19' 30" N , 113° 59' 18" E
KCC
Metar
WBGR 221900Z 08003KT 9999 -RA SCT014 24/24 Q1011

Miri International Airport is an airport serving Miri, a city in the state of Sarawak in East Malaysia.

Airport map

Aerial View

SKYbrary Partners:

Safety knowledge contributed by: